Location: *
(51.0333°S, 178.4667°E)
Time: 08:17:23
(UTC+00:00)

CARTOSAT-1 - Pass Details

Date: 15 November 2019
Orbit: 617 x 619 km, 97.8° (Epoch: 13 December)

Event Time Altitude Azimuth Distance (km) Brightness Sun altitude
Rises 10:07:58 0° 160° (SSE) 2,942 7.7 -16.9°
Reaches altitude 10° 10:10:21 10° 150° (SSE) 2,027 6.7 -17.1°
Maximum altitude 10:14:24 35° 84° (E) 1,026 4.4 -17.4°
Enters shadow 10:15:28 31° 54° (NE) 1,122 4.4 -17.4°
